Regional Weather Roundup
Issued by NWS Charleston, SC

Current Version | Previous Version | Graphics & Text | Print | Product List | Glossary On
Versions: 1 2 3 4 5 6 7 8 9 10 11 12 13 14 15 16 17 18 19 20 21 22 23 24 25 26 27 28 29 30 31 32 33 34 35 36 37 38 39 40 41 42 43 44 45 46 47 48 49 50
000 ASUS42 KCHS 231512 RWRCHS REGIONAL WEATHER ROUNDUP NATIONAL WEATHER SERVICE CHARLESTON SC 1000 AM EST THU NOV 23 2017 NOTE: "FAIR" INDICATES FEW OR NO CLOUDS BELOW 12,000 FEET WITH NO SIGNIFICANT WEATHER AND/OR OBSTRUCTIONS TO VISIBILITY. NOT ALL STATIONS ARE QUALITY CONTROLLED. USE DATA WITH CAUTION... ESPECIALLY DEWPOINT OBSERVATIONS. SCZ027-030-031-034>040-042>050-231600- ...SOUTHEAST SOUTH CAROLINA... CITY SKY/WX TMP DP RH WIND PRES REMARKS N CHARLESTON LGT RAIN 47 44 90 NE8 30.09R WATERFRONT PRK NOT AVBL JOHNS ISLAND LGT RAIN 50 48 93 N7 30.08S PINOPOLIS N/A 46 41 81 NE10 30.03R MONCKS CORNER DRIZZLE 46 37 71 NE6 30.10S SUMMERVILLE LGT RAIN 46 43 87 NE3 30.11R BEAUFORT MCAS LGT RAIN 49 47 93 NE8 30.09R BEAUFORT ARPT LGT RAIN 48 46 93 NE13 30.08S HILTON HEAD IS LGT RAIN 50 46 87 N12 30.07S WALTERBORO LGT RAIN 45 43 93 NE3 30.11R ALLENDALE CLOUDY 48 37 66 VRB6 30.09S ...SOUTHERN MIDLANDS AND PEE DEE... CITY SKY/WX TMP DP RH WIND PRES REMARKS GEORGETOWN DRIZZLE 46 43 87 NE9 30.11S KINGSTREE CLOUDY 45 36 70 N3 30.12S ORANGEBURG CLOUDY 46 34 62 NE7 30.11R BARNWELL N/A 50 37 62 NE6 30.11R AIKEN FAIR 48 32 53 NE9 30.12F MANNING FAIR 45 34 65 MISG 30.11S COLUMBIA CLOUDY 49 32 52 E10 30.12S SUMTER CLOUDY 45 31 58 NE13 30.10S FLORENCE PTSUNNY 45 34 65 NE8 30.14S MYRTLE BEACH CLOUDY 46 37 71 N9 30.13S N MYRTLE BEACH CLOUDY 46 37 71 NE9 30.11S $$ GAZ063-065-086>088-099>101-113>116-118-119-134>141-150-231600- ...SOUTHEAST GEORGIA... CITY SKY/WX TMP DP RH WIND PRES REMARKS SAVANNAH ARPT LGT RAIN 49 46 90 NE7 30.07S HUNTER AAF CLOUDY 49 46 86 NE6 30.04S FORT STEWART LGT RAIN 49 46 89 NE7 30.03S STATESBORO RAIN 48 42 81 CALM 30.08S SYLVANIA CLOUDY 48 44 84 E8 30.09S CLAXTON LGT RAIN 50 46 87 NE7 30.08R ...CSRA...CENTRAL AND FAR SOUTHEAST GEORGIA... CITY SKY/WX TMP DP RH WIND PRES REMARKS THOMSON MOSUNNY 50 34 54 E10 30.15S AUGUSTA-BUSH CLOUDY 51 34 52 E8 30.09S AUGUSTA-DANIEL CLOUDY 51 33 50 E8 30.10S SWAINSBORO FAIR 52 39 62 NE5 30.08S VIDALIA DRIZZLE 52 46 82 E9 30.06S EASTMAN FAIR 59 34 39 E6 30.08S HAZLEHURST LGT RAIN 52 47 83 E6 30.04F ALMA CLOUDY 54 51 90 VRB3 30.04R WAYCROSS DRIZZLE 54 51 90 E7 30.03R JESUP LGT RAIN 54 48 82 CALM 30.04F BAXLEY RAIN 50 50 100 NE8 30.05S BRUNSWICK LGT RAIN 55 54 94 NE10G16 30.03F SAINT SIMONS LGT RAIN 59 58 96 NE13 30.02S FOG $$ SCZ027-028-034-036>038-045-046-048>050-GAZ119-141-231600- ...LAKE AND SUPPLEMENTAL COASTAL OBSERVATIONS... STATION/POSITION TIME TEMP WIND PRES WAVE SWELL AIR SEA DIR/SP/G HT/PER HT/PER/DIR (UTC) (F) (DEG/KT/KT) (MB) (FT/S) (FT/S/D) WINYAH BAY 1345 49 360/ 5 1019.0 LAKE MURRAY 1420 44 50/ 3/ 8 1019.3 ACE BASIN NERRS 1345 47 10/ 3 1018.0 FORT PULASKI 1442 52 62 50/ 11/ 14 1018.2F SAPELO ISLAND 1400 57 40/ 10 1017.0 $$ ANZ835-935-AMZ111-154-330-350-352-354-370-450-454-472-231600- ...C-MAN AND BUOY OBSERVATIONS... STATION/POSITION TIME TEMP WIND PRES WAVE SWELL AIR SEA DIR/SP/G HT/PER HT/PER/DIR (UTC) (F) (DEG/KT/KT) (MB) (FT/S) (FT/S/D) BUOY 41004 1450 66 75 40/ 19/ 23 1016.5F 6/ 7 3/110/ 8 BUOY 41008 1450 62 67 40/ 19/ 25 1015.8R 6/ 6 2/160/11 FOLLY BEACH CMAN 1400 52 20/ 12/ 14 1018.7R CAPERS NEARSHORE 1408 52 62 40/ 16/ 21 1017.7S FRIPP NEARSHORE 1408 53 62 40/ 12/ 21 1018.4R STATION/POSITION TIME TEMP WIND PRES WAVE SWELL AIR SEA DIR/SP/G HT/PER HT/PER/DIR (UTC) (F) (DEG/KT/KT) (MB) (FT/S) (FT/S/D) 5E ST. MARYS GA 1430 67 N/A 5/ 5 FRYING PAN BUOY 1450 61 72 30/ 19/ 23 1018.3R 7/ 9 3/120/ 9 BUOY 41025 1450 57 71 10/ 14/ 19 1019.6R 6/ 9 5/120/ 9 CAPE LOOKOUT NC 1400 10/ 14/ 16 1020.2R BUOY 41002 1450 72 76 40/ 16/ 19 1015.5F 7/ 9 5/100/ 9 BUOY 41010 NOT AVBL ST AUGUSTINE FL 1500 67 69 20/ 17/ 18 1014.1F $$

USA.gov is the U.S. government's official web portal to all federal, state and local government web resources and services.